Date,TemperatureHighF,TemperatureAvgF,TemperatureLowF,DewpointHighF,DewpointAvgF,DewpointLowF,HumidityHigh,HumidityAvg,HumidityLow,PressureMaxIn,PressureMinIn,WindSpeedMaxMPH,WindSpeedAvgMPH,GustSpeedMaxMPH,PrecipitationSumIn
2013-7-1,87.3,77.1,71.4,71.0,65.9,63.0,79,69,55,29.85,29.71,5,0,5,0.00
2013-7-2,91.9,79.8,72.1,70.2,66.0,64.2,79,64,47,30.00,29.84,3,0,3,0.00
2013-7-3,77.0,73.5,68.9,76.7,70.1,64.6,99,90,68,30.09,29.99,4,0,4,0.00
2013-7-4,76.8,71.8,68.7,75.3,70.8,67.5,99,97,92,30.11,30.02,4,1,4,0.00
2013-7-5,81.7,74.7,70.7,76.7,71.6,15.5,99,91,10,30.11,30.03,4,1,4,0.97
2013-7-6,86.4,75.3,70.2,80.6,71.0,67.3,95,87,69,30.08,29.98,2,0,2,0.41
2013-7-7,80.1,76.6,72.7,74.2,71.1,68.8,90,83,76,30.09,30.01,4,0,4,0.03
2013-7-8,90.0,79.2,73.9,79.0,71.3,68.8,86,78,60,30.11,30.00,4,0,4,0.03
2013-7-9,88.9,80.6,75.7,74.7,71.8,69.1,82,75,58,30.08,29.97,5,1,5,0.19
2013-7-10,90.0,80.3,75.6,80.1,71.7,68.4,85,76,63,30.02,29.88,5,0,5,0.00
2013-7-11,81.3,77.3,73.4,72.7,70.0,67.0,83,78,74,29.89,29.79,2,0,2,0.00
2013-7-12,77.5,75.3,72.5,70.5,68.4,64.9,83,79,75,29.88,29.81,4,0,4,0.00
2013-7-13,77.2,71.8,70.2,72.3,67.1,63.9,99,85,76,29.98,29.87,4,0,4,0.19
2013-7-14,81.3,75.0,71.8,75.7,71.6,69.6,99,89,80,30.12,29.97,5,1,5,0.22
2013-7-15,87.6,77.1,71.6,77.8,70.8,66.3,92,82,66,30.19,30.11,2,0,2,0.00
2013-7-16,93.0,81.0,73.4,77.0,69.4,65.9,85,69,54,30.23,30.14,5,0,5,0.00
2013-7-17,93.4,80.8,73.2,75.2,68.8,64.5,85,68,49,30.20,30.03,4,0,4,1.72
2013-7-18,92.1,81.3,71.6,76.6,71.2,66.3,86,73,55,30.15,29.97,2,0,2,0.03
2013-7-19,91.2,83.3,75.6,75.2,71.0,68.2,81,67,55,30.06,29.91,2,0,2,0.00
2013-7-20,82.0,78.1,76.1,70.4,68.9,68.4,77,73,68,29.97,29.88,2,0,2,0.00
2013-7-21,90.9,80.3,73.6,74.2,69.7,66.7,83,71,53,29.97,29.84,5,1,5,0.50
2013-7-22,85.5,77.2,72.1,74.1,70.0,67.0,86,79,63,29.95,29.82,13,1,13,0.08
2013-7-23,84.7,77.7,72.5,72.5,68.9,66.7,84,75,59,29.90,29.76,7,2,7,0.00
2013-7-24,88.9,78.8,72.9,73.3,68.7,64.4,84,72,57,29.82,29.74,7,2,7,0.00
2013-7-25,91.0,80.5,72.3,72.8,67.7,62.4,82,66,50,29.93,29.77,4,0,4,0.50
2013-7-26,92.5,79.8,70.7,74.4,67.5,63.3,80,67,50,30.00,29.90,2,1,2,0.00
2013-7-27,81.0,78.5,75.9,66.8,66.1,65.3,72,66,60,29.87,29.83,3,0,3,0.00
2013-7-28,90.9,80.0,71.1,70.6,66.7,63.7,81,65,48,29.96,29.85,6,1,6,0.00
2013-7-29,89.8,79.8,72.7,67.1,62.4,55.7,74,57,38,30.04,29.94,5,1,5,0.00
2013-7-30,93.2,80.0,67.1,99.9,62.5,55.4,101,56,41,30.33,30.02,4,0,4,0.00
2013-7-31,80.1,77.7,74.7,69.4,66.9,63.6,77,69,59,30.08,29.86,5,0,5,0.11